Location: Unspecified
(48.8656°N, 0.0000°E)
Time: 15:32:45
(UTC+00:00)

Altair - Pass Details

Date: 20 June 2019
Orbit: 1501 x 1683 km, 47.2° (Epoch: 15 July)

Event Time Altitude Azimuth Distance (km) Brightness Sun altitude
Rises 23:23:35 0° 271° (W) 4,786 10.2 -17.2°
Reaches altitude 10° 23:26:38 10° 270° (W) 3,825 9.7 -17.3°
Maximum altitude 23:36:27 82° 185° (S) 1,667 7.5 -17.5°
Drops below altitude 10° 23:46:36 10° 100° (E) 3,937 9.5 -17.6°
Sets 23:49:46 0° 100° (E) 4,931 10.0 -17.6°
